PILOTS ONLINE: 323    ATC ONLINE: 53

KSDM

Brown Field Municipal Airport

Location

City San Diego
Country  United States
Latitude 32° 34' 20" N
Longitude 116° 58' 48" W
Elevation 526 ft
Type Medium Airport

Map

Weather

METAR
2014/10/21 23:53
KSDM 212353Z 29007KT 10SM CLR 22/17 A2985 RMK AO2 SLP102 T02170167 10244 20217 55003
TAF
No TAF available

Runways

08L/26R 7972 ft / 150 ft
08R/26L 3180 ft / 75 ft

Outbound flights

Callsign Flying to Pilot ATD/STD ETA Aircraft

Inbound flights

Callsign Flying from Pilot ATD ETA Aircraft